Weather History for KGLY - February, 2013

Change the Weather History Date:

Tuesday, February 26, 2013

  Actual Average (KSZL) Record (KSZL)
Temperature  
Mean Temperature 34 °F -  
Max Temperature 35 °F 43 °F 68 °F (2009)
Min Temperature 33 °F 27 °F 6 °F (2014)
Degree Days  
Heating Degree Days 31    
Moisture  
Dew Point 33 °F    
Average Humidity 95    
Maximum Humidity 100    
Minimum Humidity 87    
Precipitation  
Precipitation 0.00 in - - ()
Sea Level Pressure  
Sea Level Pressure 29.58 in    
Wind  
Wind Speed 13 mph (NNW)    
Max Wind Speed 20 mph    
Max Gust Speed 26 mph    
Visibility 4 miles    
Events Rain , Snow    
Averages and records for this station are not official NWS values.
T = Trace of Precipitation, MM = Missing Value Source: NWS Daily Summary

Daily Weather History Graph

Daily Weather History Graph

Search for Another Location

Airport or City:

Trip Planner

Search our weather history database for the weather conditions in past years. The results will help you decide how hot, cold, wet, or windy it might be!

Date:

Astronomy

Feb. 26, 2013 Rise Set
Actual Time 6:50 AM CST 6:05 PM CST
Civil Twilight 6:23 AM CST 6:31 PM CST
Nautical Twilight 5:53 AM CST 7:02 PM CST
Astronomical Twilight 5:22 AM CST 7:33 PM CST
Moon 7:20 PM CST (2/26) 6:54 AM CST (2/26)
Length of Visible Light 12h 07m
Length of Day
11h 14m
Full, 99% of the Moon is Illuminated
Feb 26
Full
Mar 4
Last Quarter
Mar 11
New
Mar 19
First Quarter
Mar 27
Full

Hourly Weather History & Observations

Time (CST) Temp. Windchill Dew Point Humidity Pressure Visibility Wind Dir Wind Speed Gust Speed Precip Events Conditions
12:15 AM 33.8 °F 23.2 °F 33.8 °F 100% 29.54 in 2.5 mi NE 17.3 mph 23.0 mph N/A Snow Light Snow
12:35 AM 33.8 °F 23.5 °F 33.8 °F 100% 29.52 in 1.0 mi NNE 16.1 mph 24.2 mph N/A Snow Light Snow
12:55 AM 33.8 °F 23.5 °F 33.8 °F 100% 29.52 in 1.0 mi NNE 16.1 mph 24.2 mph N/A Snow Light Snow
1:15 AM 33.8 °F 24.3 °F 33.8 °F 100% 29.50 in 0.5 mi NE 13.8 mph 21.9 mph N/A Snow Snow
1:35 AM 33.8 °F 23.9 °F 33.8 °F 100% 29.49 in 1.0 mi NNE 15.0 mph - N/A Snow Light Snow
1:55 AM 33.8 °F 24.8 °F 33.8 °F 100% 29.48 in 0.8 mi NNE 12.7 mph - N/A Snow Light Snow
2:15 AM 33.8 °F 24.8 °F 33.8 °F 100% 29.48 in - NNE 12.7 mph - N/A Snow Light Snow
2:35 AM 33.8 °F 25.8 °F 33.8 °F 100% 29.47 in 0.5 mi NNE 10.4 mph - N/A Snow Snow
2:55 AM 33.8 °F 25.8 °F 33.8 °F 100% 29.47 in 0.5 mi NNE 10.4 mph - N/A Snow Snow
3:15 AM 33.8 °F 25.8 °F 33.8 °F 100% 29.46 in 0.5 mi NNE 10.4 mph - N/A   Overcast
3:35 AM 33.8 °F 27.0 °F 33.8 °F 100% 29.46 in 0.8 mi NNE 8.1 mph - N/A Snow Light Snow
3:55 AM 33.8 °F 27.0 °F 33.8 °F 100% 29.45 in 0.5 mi NNE 8.1 mph - N/A Snow Snow
4:15 AM 33.8 °F 27.0 °F 33.8 °F 100% 29.45 in 0.2 mi North 8.1 mph - N/A Snow Heavy Snow
4:35 AM 33.8 °F 26.4 °F 33.8 °F 100% 29.44 in 0.2 mi North 9.2 mph - N/A Snow Snow
4:55 AM 33.8 °F 26.4 °F 33.8 °F 100% 29.44 in 0.5 mi North 9.2 mph - N/A Snow Heavy Snow
5:15 AM 33.8 °F 27.0 °F 33.8 °F 100% 29.44 in 0.2 mi North 8.1 mph - N/A Snow Snow
5:35 AM 33.8 °F 27.0 °F 33.8 °F 100% 29.44 in 0.5 mi North 8.1 mph - N/A Snow Snow
5:55 AM 33.8 °F 26.4 °F 33.8 °F 100% 29.44 in 0.5 mi North 9.2 mph - N/A   Overcast
6:15 AM 33.8 °F 27.0 °F 33.8 °F 100% 29.44 in 0.8 mi North 8.1 mph - N/A Snow Snow
6:35 AM 33.8 °F 25.8 °F 33.8 °F 100% 29.45 in 0.5 mi North 10.4 mph - N/A Snow Snow
6:55 AM 33.8 °F 26.4 °F 33.8 °F 100% 29.45 in 0.5 mi North 9.2 mph - N/A   Overcast
7:15 AM 33.8 °F 25.8 °F 33.8 °F 100% 29.45 in 0.5 mi North 10.4 mph - N/A   Overcast
7:35 AM 33.8 °F 25.3 °F 33.8 °F 100% 29.46 in 0.8 mi North 11.5 mph - N/A   Mostly Cloudy
7:55 AM 33.8 °F 25.3 °F 33.8 °F 100% 29.46 in 0.5 mi North 11.5 mph - N/A   Overcast
8:15 AM 33.8 °F 25.8 °F 33.8 °F 100% 29.47 in 0.8 mi North 10.4 mph - N/A   Overcast
8:35 AM 33.8 °F 24.8 °F 33.8 °F 100% 29.47 in 0.5 mi North 12.7 mph - N/A   Overcast
8:55 AM 33.8 °F 25.3 °F 33.8 °F 100% 29.48 in 1.0 mi North 11.5 mph - N/A Snow Light Snow
9:15 AM 33.8 °F 24.3 °F 33.8 °F 100% 29.48 in 1.5 mi North 13.8 mph - N/A   Overcast
9:35 AM 33.8 °F 25.3 °F 32.0 °F 93% 29.48 in 4.0 mi North 11.5 mph 17.3 mph N/A   Light Drizzle
9:55 AM 33.8 °F 23.5 °F 32.0 °F 93% 29.48 in 5.0 mi North 16.1 mph - N/A Rain Light Rain
10:15 AM 33.8 °F 24.8 °F 32.0 °F 93% 29.49 in 6.0 mi North 12.7 mph - N/A Rain Light Rain
10:35 AM 33.8 °F 25.3 °F 32.0 °F 93% 29.49 in 7.0 mi North 11.5 mph - N/A   Overcast
10:55 AM 33.8 °F 24.8 °F 32.0 °F 93% 29.50 in 8.0 mi North 12.7 mph - N/A   Overcast
11:15 AM 33.8 °F 25.3 °F 32.0 °F 93% 29.52 in 6.0 mi North 11.5 mph - N/A   Overcast
11:35 AM 33.8 °F 25.8 °F 32.0 °F 93% 29.53 in 5.0 mi North 10.4 mph - N/A   Overcast
11:55 AM 33.8 °F 25.3 °F 32.0 °F 93% 29.54 in 5.0 mi North 11.5 mph - N/A   Overcast
12:15 PM 33.8 °F 23.5 °F 32.0 °F 93% 29.55 in 5.0 mi North 16.1 mph - N/A   Overcast
12:35 PM 33.8 °F 23.9 °F 32.0 °F 93% 29.55 in 5.0 mi NNW 15.0 mph - N/A   Overcast
12:55 PM 33.8 °F 22.5 °F 32.0 °F 93% 29.55 in 5.0 mi NNW 19.6 mph 24.2 mph N/A   Overcast
1:15 PM 33.8 °F 22.8 °F 32.0 °F 93% 29.55 in 7.0 mi North 18.4 mph - N/A   Overcast
1:35 PM 35.6 °F 24.8 °F 32.0 °F 87% 29.55 in 8.0 mi NNW 19.6 mph 26.5 mph N/A   Overcast
2:15 PM 35.6 °F 25.9 °F 32.0 °F 87% 29.57 in 8.0 mi NNW 16.1 mph 26.5 mph N/A   Overcast
2:35 PM 35.6 °F 25.2 °F 32.0 °F 87% 29.58 in 7.0 mi NNW 18.4 mph 21.9 mph N/A   Overcast
2:55 PM 35.6 °F 25.2 °F 32.0 °F 87% 29.60 in 7.0 mi NNW 18.4 mph 21.9 mph N/A   Overcast
3:15 PM 33.8 °F 23.2 °F 32.0 °F 93% 29.61 in 7.0 mi NNW 17.3 mph 24.2 mph N/A   Overcast
3:35 PM 33.8 °F 23.9 °F 32.0 °F 93% 29.62 in 6.0 mi NNW 15.0 mph 21.9 mph N/A   Overcast
3:55 PM 33.8 °F 24.3 °F 32.0 °F 93% 29.63 in 6.0 mi NNW 13.8 mph 21.9 mph N/A   Overcast
4:15 PM 33.8 °F 24.3 °F 32.0 °F 93% 29.64 in 5.0 mi NNW 13.8 mph - N/A   Overcast
4:35 PM 33.8 °F 23.2 °F 32.0 °F 93% 29.64 in 5.0 mi NNW 17.3 mph - N/A   Overcast
4:55 PM 33.8 °F 23.9 °F 32.0 °F 93% 29.65 in 6.0 mi NNW 15.0 mph 18.4 mph N/A   Overcast
5:15 PM 33.8 °F 24.3 °F 32.0 °F 93% 29.67 in 5.0 mi NW 13.8 mph 19.6 mph N/A   Overcast
5:35 PM 33.8 °F 25.3 °F 32.0 °F 93% 29.68 in 6.0 mi NNW 11.5 mph 17.3 mph N/A   Overcast
5:55 PM 33.8 °F 23.5 °F 32.0 °F 93% 29.69 in 5.0 mi NNW 16.1 mph - N/A   Overcast
6:15 PM 33.8 °F 24.8 °F 32.0 °F 93% 29.70 in 5.0 mi NNW 12.7 mph - N/A   Overcast
6:35 PM 33.8 °F 24.8 °F 32.0 °F 93% 29.71 in 5.0 mi NNW 12.7 mph - N/A   Overcast
6:55 PM 33.8 °F 25.3 °F 32.0 °F 93% 29.72 in 5.0 mi NNW 11.5 mph - N/A   Overcast
7:15 PM 33.8 °F 25.3 °F 32.0 °F 93% 29.73 in 6.0 mi NNW 11.5 mph - N/A   Overcast
7:35 PM 33.8 °F 25.3 °F 32.0 °F 93% 29.74 in 7.0 mi NNW 11.5 mph - N/A   Overcast
7:55 PM 33.8 °F 26.4 °F 32.0 °F 93% 29.75 in 5.0 mi NW 9.2 mph - N/A   Overcast
8:15 PM 33.8 °F 26.4 °F 32.0 °F 93% 29.76 in 5.0 mi NW 9.2 mph - N/A   Overcast
8:35 PM 33.8 °F 26.4 °F 32.0 °F 93% 29.77 in 5.0 mi WNW 9.2 mph - N/A Rain Light Rain
8:55 PM 33.8 °F 27.0 °F 32.0 °F 93% 29.78 in 5.0 mi West 8.1 mph - N/A Rain Light Rain
9:15 PM 33.8 °F 26.4 °F 32.0 °F 93% 29.80 in 6.0 mi West 9.2 mph - N/A   Overcast
9:35 PM 33.8 °F 25.8 °F 32.0 °F 93% 29.80 in 7.0 mi WNW 10.4 mph - N/A   Overcast
9:55 PM 33.8 °F 25.8 °F 32.0 °F 93% 29.81 in 7.0 mi WNW 10.4 mph - N/A   Overcast
10:15 PM 33.8 °F 25.8 °F 32.0 °F 93% 29.81 in 7.0 mi WNW 10.4 mph - N/A   Overcast
10:35 PM 33.8 °F 25.3 °F 32.0 °F 93% 29.81 in 5.0 mi WNW 11.5 mph - N/A Snow Light Snow
10:55 PM 33.8 °F 24.8 °F 32.0 °F 93% 29.82 in 5.0 mi WNW 12.7 mph - N/A   Overcast
11:15 PM 33.8 °F 24.8 °F 32.0 °F 93% 29.81 in 5.0 mi WNW 12.7 mph - N/A   Overcast
11:35 PM 33.8 °F 25.3 °F 32.0 °F 93% 29.82 in 5.0 mi WNW 11.5 mph - N/A   Overcast
11:55 PM 33.8 °F 25.8 °F 32.0 °F 93% 29.82 in 5.0 mi WNW 10.4 mph - N/A   Overcast